Date,Installs,Update checks
2014-10-03,6,
2014-10-04,4,
2014-10-05,4,
2014-10-06,4,
2014-10-07,6,
2014-10-08,5,
2014-10-09,1,
2014-10-10,9,
2014-10-11,7,
2014-10-12,1,
2014-10-13,1,
2014-10-14,0,
2014-10-15,1,
2014-10-16,3,
2014-10-17,5,
2014-10-18,4,
2014-10-19,2,
2014-10-20,3,
2014-10-21,3,
2014-10-22,6,
2014-10-23,6,31
2014-10-24,12,25
2014-10-25,4,38
2014-10-26,7,30
2014-10-27,3,41
2014-10-28,3,38
2014-10-29,12,39
2014-10-30,8,41
2014-10-31,8,44
2014-11-01,7,45
2014-11-02,4,44
2014-11-03,4,49
2014-11-04,0,51
2014-11-05,2,51
2014-11-06,1,49
2014-11-07,2,45
2014-11-08,6,59
2014-11-09,3,45
2014-11-10,3,70
2014-11-11,4,54
2014-11-12,4,66
2014-11-13,5,57
2014-11-14,3,72
2014-11-15,5,56
2014-11-16,1,61
2014-11-17,4,58
2014-11-18,6,70
2014-11-19,5,59
2014-11-20,5,69
2014-11-21,7,66
2014-11-22,3,60
2014-11-23,3,79
2014-11-24,9,78
2014-11-25,5,74
2014-11-26,4,84
2014-11-27,6,76
2014-11-28,5,87
2014-11-29,9,77
2014-11-30,5,88
2014-12-01,1,90
2014-12-02,3,104
2014-12-03,2,95
2014-12-04,4,88
2014-12-05,5,90
2014-12-06,9,82
2014-12-07,8,76
2014-12-08,3,87
2014-12-09,5,84
2014-12-10,4,87
2014-12-11,3,97
2014-12-12,6,88
2014-12-13,3,91
2014-12-14,3,81
2014-12-15,5,94
2014-12-16,5,82
2014-12-17,4,77
2014-12-18,4,85
2014-12-19,4,81
2014-12-20,6,84
2014-12-21,8,72
2014-12-22,4,100
2014-12-23,6,80
2014-12-24,3,97
2014-12-25,5,70
2014-12-26,4,100
2014-12-27,4,91
2014-12-28,4,95
2014-12-29,6,101
2014-12-30,6,105
2014-12-31,8,94
2015-01-01,5,96
2015-01-02,7,104
2015-01-03,10,100
2015-01-04,6,114
2015-01-05,11,120
2015-01-06,2,120
2015-01-07,3,126
2015-01-08,7,115
2015-01-09,5,119
2015-01-10,7,128
2015-01-11,1,119
2015-01-12,8,132
2015-01-13,2,133
2015-01-14,2,109
2015-01-15,4,135
2015-01-16,5,124
2015-01-17,1,133
2015-01-18,3,113
2015-01-19,6,138
2015-01-20,5,126
2015-01-21,4,139
2015-01-22,7,124
2015-01-23,2,149
2015-01-24,5,123
2015-01-25,1,136
2015-01-26,5,141
2015-01-27,11,156
2015-01-28,4,157
2015-01-29,6,168
2015-01-30,4,146
2015-01-31,11,154
2015-02-01,6,143
2015-02-02,14,178
2015-02-03,11,140
2015-02-04,5,171
2015-02-05,7,178
2015-02-06,9,162
2015-02-07,3,170
2015-02-08,2,169
2015-02-09,2,174
2015-02-10,7,165
2015-02-11,3,169
2015-02-12,3,184
2015-02-13,6,178
2015-02-14,6,178
2015-02-15,10,166
2015-02-16,5,195
2015-02-17,7,180
2015-02-18,7,189
2015-02-19,6,182
2015-02-20,6,183
2015-02-21,3,160
2015-02-22,5,194
2015-02-23,3,173
2015-02-24,8,192
2015-02-25,12,187
2015-02-26,5,191
2015-02-27,8,173
2015-02-28,5,212
2015-03-01,2,172
2015-03-02,1,214
2015-03-03,10,178
2015-03-04,6,209
2015-03-05,0,193
2015-03-06,0,197
2015-03-07,5,172
2015-03-08,4,199
2015-03-09,5,179
2015-03-10,1,215
2015-03-11,6,189
2015-03-12,0,205
2015-03-13,4,172
2015-03-14,0,198
2015-03-15,1,167
2015-03-16,6,212
2015-03-17,2,171
2015-03-18,6,216
2015-03-19,4,172
2015-03-20,2,188
2015-03-21,2,154
2015-03-22,1,182
2015-03-23,5,182
2015-03-24,9,190
2015-03-25,5,191
2015-03-26,3,193
2015-03-27,3,188
2015-03-28,5,192
2015-03-29,7,176
2015-03-30,3,208
2015-03-31,2,191
2015-04-01,4,206
2015-04-02,5,180
2015-04-03,6,191
2015-04-04,4,174
2015-04-05,4,176
2015-04-06,3,199
2015-04-07,3,198
2015-04-08,2,198
2015-04-09,4,191
2015-04-10,4,211
2015-04-11,6,171
2015-04-12,5,180
2015-04-13,7,209
2015-04-14,12,203
2015-04-15,6,206
2015-04-16,3,208
2015-04-17,3,190
2015-04-18,3,261
2015-04-19,4,207
2015-04-20,5,313
2015-04-21,4,292
2015-04-22,3,333
2015-04-23,8,280
2015-04-24,3,338
2015-04-25,4,308
2015-04-26,6,319
2015-04-27,7,308
2015-04-28,5,378
2015-04-29,7,349
2015-04-30,2,368
2015-05-01,10,389
2015-05-02,7,403
2015-05-03,7,386
2015-05-04,8,449
2015-05-05,6,394
2015-05-06,3,455
2015-05-07,8,409
2015-05-08,6,442
2015-05-09,12,434
2015-05-10,7,468
2015-05-11,7,498
2015-05-12,6,489
2015-05-13,3,502
2015-05-14,8,320
2015-05-15,3,326
2015-05-16,6,577
2015-05-17,8,392
2015-05-18,8,622
2015-05-19,3,397
2015-05-20,2,592
2015-05-21,5,431
2015-05-22,10,500
2015-05-23,3,500
2015-05-24,4,458
2015-05-25,8,508
2015-05-26,10,428
2015-05-27,6,429
2015-05-28,1,410
2015-05-29,7,503
2015-05-30,9,500
2015-05-31,9,490
2015-06-01,4,497
2015-06-02,7,465
2015-06-03,5,475
2015-06-04,5,561
2015-06-05,6,462
2015-06-06,12,448
2015-06-07,6,569
2015-06-08,8,475
2015-06-09,5,554
2015-06-10,3,466
2015-06-11,6,564
2015-06-12,3,458
2015-06-13,8,573
2015-06-14,5,447
2015-06-15,3,530
2015-06-16,4,481
2015-06-17,1,507
2015-06-18,2,523
2015-06-19,6,514
2015-06-20,5,514
2015-06-21,7,529
2015-06-22,3,506
2015-06-23,2,566
2015-06-24,4,492
2015-06-25,3,590
2015-06-26,2,470
2015-06-27,7,545
2015-06-28,5,503
2015-06-29,7,554
2015-06-30,3,504
2015-07-01,7,563
2015-07-02,3,505
2015-07-03,8,541
2015-07-04,1,451
2015-07-05,8,550
2015-07-06,3,481
2015-07-07,6,513
2015-07-08,4,526
2015-07-09,4,516
2015-07-10,3,552
2015-07-11,3,491
2015-07-12,4,553
2015-07-13,3,376
2015-07-14,8,271
2015-07-15,7,256
2015-07-16,5,275
2015-07-17,3,250
2015-07-18,9,252
2015-07-19,4,259
2015-07-20,1,252
2015-07-21,2,275
2015-07-22,3,264
2015-07-23,4,274
2015-07-24,4,254
2015-07-25,4,230
2015-07-26,5,266
2015-07-27,4,250
2015-07-28,3,262
2015-07-29,2,283
2015-07-30,7,249
2015-07-31,6,267
2015-08-01,3,242
2015-08-02,1,254
2015-08-03,3,249
2015-08-04,6,280
2015-08-05,0,243
2015-08-06,2,268
2015-08-07,0,247
2015-08-08,0,275
2015-08-09,5,278
2015-08-10,1,269
2015-08-11,7,229
2015-08-12,2,281
2015-08-13,2,247
2015-08-14,2,272
2015-08-15,2,234
2015-08-16,0,257
2015-08-17,1,267
2015-08-18,2,274
2015-08-19,2,259
2015-08-20,2,240
2015-08-21,1,255
2015-08-22,3,255
2015-08-23,5,224
2015-08-24,0,227
2015-08-25,2,244
2015-08-26,0,242
2015-08-27,2,225
2015-08-28,1,232
2015-08-29,1,216
2015-08-30,0,232
2015-08-31,3,230
2015-09-01,1,221
2015-09-02,1,227
2015-09-03,1,245
2015-09-04,1,205
2015-09-05,2,239
2015-09-06,1,212
2015-09-07,1,235
2015-09-08,1,196
2015-09-09,2,233
2015-09-10,0,206
2015-09-11,1,230
2015-09-12,1,195
2015-09-13,3,212
2015-09-14,1,226
2015-09-15,2,219
2015-09-16,1,243
2015-09-17,0,211
2015-09-18,0,229
2015-09-19,0,195
2015-09-20,1,220
2015-09-21,1,219
2015-09-22,0,213
2015-09-23,0,217
2015-09-24,0,212
2015-09-25,0,212
2015-09-26,0,191
2015-09-27,0,215
2015-09-28,0,205
2015-09-29,0,218
2015-09-30,0,207
2015-10-01,0,199
2015-10-02,0,197
2015-10-03,1,194
2015-10-04,0,186
2015-10-05,0,204
2015-10-06,0,194
2015-10-07,1,195
2015-10-08,0,188
2015-10-09,1,188
2015-10-10,0,197
2015-10-11,0,172
2015-10-12,1,209
2015-10-13,2,186
2015-10-14,2,200
2015-10-15,2,191
2015-10-16,2,210
2015-10-17,0,169
2015-10-18,0,194
2015-10-19,1,190
2015-10-20,0,197
2015-10-21,0,182
2015-10-22,0,188
2015-10-23,1,171
2015-10-24,0,179
2015-10-25,0,163
2015-10-26,1,195
2015-10-27,0,172
2015-10-28,0,184
2015-10-29,0,173
2015-10-30,1,187
2015-10-31,0,176
2015-11-01,0,177
2015-11-02,0,184
2015-11-03,0,182
2015-11-04,1,193
2015-11-05,0,186
2015-11-06,1,179
2015-11-07,0,165
2015-11-08,0,174
2015-11-09,0,174
2015-11-10,1,181
2015-11-11,1,174
2015-11-12,0,170
2015-11-13,0,168
2015-11-14,0,159
2015-11-15,0,166
2015-11-16,1,175
2015-11-17,0,172
2015-11-18,1,158
2015-11-19,0,189
2015-11-20,0,158
2015-11-21,0,167
2015-11-22,0,152
2015-11-23,1,175
2015-11-24,0,153
2015-11-25,0,167
2015-11-26,0,145
2015-11-27,2,167
2015-11-28,0,154
2015-11-29,0,154
2015-11-30,1,160
2015-12-01,1,161
2015-12-02,1,153
2015-12-03,0,172
2015-12-04,0,149
2015-12-05,0,157
2015-12-06,0,136
2015-12-07,0,171
2015-12-08,0,135
2015-12-09,1,153
2015-12-10,2,143
2015-12-11,1,161
2015-12-12,0,139
2015-12-13,0,163
2015-12-14,1,130
2015-12-15,2,155
2015-12-16,1,140
2015-12-17,0,147
2015-12-18,1,138
2015-12-19,0,154
2015-12-20,0,125
2015-12-21,1,158
2015-12-22,0,115
2015-12-23,0,162
2015-12-24,1,118
2015-12-25,0,147
2015-12-26,0,114
2015-12-27,2,137
2015-12-28,2,133
2015-12-29,0,146
2015-12-30,1,127
2015-12-31,0,142
2016-01-01,0,135
2016-01-02,1,128
2016-01-03,0,141
2016-01-04,0,147
2016-01-05,0,138
2016-01-06,0,141
2016-01-07,1,130
2016-01-08,1,149
2016-01-09,0,126
2016-01-10,0,133
2016-01-11,0,136
2016-01-12,0,152
2016-01-13,0,136
2016-01-14,2,139
2016-01-15,0,142
2016-01-16,1,138
2016-01-17,2,136
2016-01-18,0,143
2016-01-19,0,143
2016-01-20,1,145
2016-01-21,1,136
2016-01-22,0,143
2016-01-23,0,130
2016-01-24,0,115
2016-01-25,1,141
2016-01-26,0,131
2016-01-27,0,149
2016-01-28,1,130
2016-01-29,2,139
2016-01-30,0,127
2016-01-31,0,138
2016-02-01,0,128
2016-02-02,0,138
2016-02-03,2,129
2016-02-04,0,144
2016-02-05,0,127
2016-02-06,0,135
2016-02-07,1,138
2016-02-08,0,127
2016-02-09,0,130
2016-02-10,0,119
2016-02-11,0,130
2016-02-12,0,125
2016-02-13,0,128
2016-02-14,0,126
2016-02-15,1,134
2016-02-16,0,111
2016-02-17,3,139
2016-02-18,1,126
2016-02-19,1,125
2016-02-20,0,128
2016-02-21,0,134
2016-02-22,0,133
2016-02-23,0,128
2016-02-24,0,125
2016-02-25,0,127
2016-02-26,0,126
2016-02-27,0,124
2016-02-28,1,122
2016-02-29,0,131
2016-03-01,0,124
2016-03-02,0,133
2016-03-03,0,118
2016-03-04,0,120
2016-03-05,1,129
2016-03-06,0,113
2016-03-07,1,134
2016-03-08,1,108
2016-03-09,0,136
2016-03-10,0,116
2016-03-11,0,127
2016-03-12,1,106
2016-03-13,0,117
2016-03-14,0,106
2016-03-15,0,124
2016-03-16,1,110
2016-03-17,0,126
2016-03-18,0,109
2016-03-19,0,125
2016-03-20,1,107
2016-03-21,0,127
2016-03-22,0,110
2016-03-23,0,126
2016-03-24,0,102
2016-03-25,0,113
2016-03-26,1,112
2016-03-27,1,106
2016-03-28,1,114
2016-03-29,0,117
2016-03-30,0,114
2016-03-31,1,115
2016-04-01,1,123
2016-04-02,1,108
2016-04-03,1,111
2016-04-04,0,117
2016-04-05,0,109
2016-04-06,0,117
2016-04-07,1,105
2016-04-08,0,111
2016-04-09,1,107
2016-04-10,0,95
2016-04-11,0,115
2016-04-12,0,106
2016-04-13,0,117
2016-04-14,0,104
2016-04-15,4,111
2016-04-16,0,102
2016-04-17,0,111
2016-04-18,0,105
2016-04-19,0,110
2016-04-20,1,111
2016-04-21,1,116
2016-04-22,0,105
2016-04-23,0,103
2016-04-24,0,109
2016-04-25,1,108
2016-04-26,0,109
2016-04-27,0,108
2016-04-28,0,114
2016-04-29,0,116
2016-04-30,0,104
2016-05-01,0,117
2016-05-02,1,101
2016-05-03,2,116
2016-05-04,1,99
2016-05-05,0,111
2016-05-06,0,105
2016-05-07,0,104
2016-05-08,0,97
2016-05-09,0,109
2016-05-10,0,100
2016-05-11,0,115
2016-05-12,1,97
2016-05-13,0,114
2016-05-14,0,79
2016-05-15,0,108
2016-05-16,0,98
2016-05-17,0,113
2016-05-18,0,102
2016-05-19,1,111
2016-05-20,0,111
2016-05-21,0,109
2016-05-22,0,101
2016-05-23,0,122
2016-05-24,2,99
2016-05-25,0,123
2016-05-26,0,91
2016-05-27,1,127
2016-05-28,0,101
2016-05-29,0,101
2016-05-30,0,117
2016-05-31,0,105
2016-06-01,0,120
2016-06-02,0,103
2016-06-03,0,108
2016-06-04,1,99
2016-06-05,1,102
2016-06-06,0,105
2016-06-07,0,121
2016-06-08,1,102
2016-06-09,0,109
2016-06-10,0,100
2016-06-11,0,99
2016-06-12,0,105
2016-06-13,0,104
2016-06-14,1,120
2016-06-15,0,104
2016-06-16,1,119
2016-06-17,0,106
2016-06-18,1,102
2016-06-19,0,107
2016-06-20,0,111
2016-06-21,0,111
2016-06-22,1,102
2016-06-23,0,99
2016-06-24,1,113
2016-06-25,0,90
2016-06-26,0,116
2016-06-27,0,95
2016-06-28,0,113
2016-06-29,2,93
2016-06-30,0,117
2016-07-01,0,100
2016-07-02,0,115
2016-07-03,0,95
2016-07-04,0,106
2016-07-05,1,105
2016-07-06,0,112
2016-07-07,0,93
2016-07-08,1,105
2016-07-09,0,103
2016-07-10,0,107
2016-07-11,1,106
2016-07-12,0,107
2016-07-13,0,92
2016-07-14,0,106
2016-07-15,0,96
2016-07-16,0,90
2016-07-17,0,97
2016-07-18,2,113
2016-07-19,0,91
2016-07-20,1,115
2016-07-21,0,91
2016-07-22,0,115
2016-07-23,1,100
2016-07-24,0,104
2016-07-25,0,100
2016-07-26,0,107
2016-07-27,0,103
2016-07-28,0,104
2016-07-29,0,98
2016-07-30,2,104
2016-07-31,0,103
2016-08-01,0,114
2016-08-02,0,96
2016-08-03,0,110
2016-08-04,0,97
2016-08-05,0,103
2016-08-06,1,103
2016-08-07,0,94
2016-08-08,0,102
2016-08-09,0,94
2016-08-10,0,101
2016-08-11,0,95
2016-08-12,1,108
2016-08-13,0,95
2016-08-14,0,101
2016-08-15,0,101
2016-08-16,0,97
2016-08-17,0,93
2016-08-18,1,103
2016-08-19,0,99
2016-08-20,0,96
2016-08-21,0,96
2016-08-22,0,95
2016-08-23,0,101
2016-08-24,0,95
2016-08-25,0,115
2016-08-26,1,90
2016-08-27,0,107
2016-08-28,0,103
2016-08-29,0,97
2016-08-30,2,105
2016-08-31,0,94
2016-09-01,1,109
2016-09-02,1,105
2016-09-03,0,103
2016-09-04,1,92
2016-09-05,0,107
2016-09-06,1,111
2016-09-07,0,106
2016-09-08,0,112
2016-09-09,0,95
2016-09-10,1,101
2016-09-11,0,100
2016-09-12,0,104
2016-09-13,0,97
2016-09-14,0,103
2016-09-15,2,103
2016-09-16,0,98
2016-09-17,0,96
2016-09-18,0,99
2016-09-19,0,106
2016-09-20,0,107
2016-09-21,0,103
2016-09-22,1,92
2016-09-23,1,105
2016-09-24,1,97
2016-09-25,0,110
2016-09-26,0,88
2016-09-27,2,103
2016-09-28,0,101
2016-09-29,0,103
2016-09-30,0,88
2016-10-01,0,96
2016-10-02,0,88
2016-10-03,0,101
2016-10-04,1,91
2016-10-05,0,106
2016-10-06,0,81
2016-10-07,0,106
2016-10-08,1,92
2016-10-09,0,101
2016-10-10,0,96
2016-10-11,0,105
2016-10-12,1,93
2016-10-13,1,99
2016-10-14,0,98
2016-10-15,1,86
2016-10-16,0,95
2016-10-17,0,99
2016-10-18,0,93
2016-10-19,0,98
2016-10-20,0,99
2016-10-21,0,102
2016-10-22,0,95
2016-10-23,1,98
2016-10-24,0,95
2016-10-25,1,106
2016-10-26,2,95
2016-10-27,0,98
2016-10-28,0,99
2016-10-29,1,101
2016-10-30,0,94
2016-10-31,1,105
2016-11-01,2,106
2016-11-02,1,101
2016-11-03,0,100
2016-11-04,0,110
2016-11-05,0,87
2016-11-06,0,112
2016-11-07,0,91
2016-11-08,1,110
2016-11-09,0,98
2016-11-10,0,106
2016-11-11,1,96
2016-11-12,0,95
2016-11-13,0,92
2016-11-14,0,101
2016-11-15,0,93
2016-11-16,0,103
2016-11-17,0,96
2016-11-18,0,96
2016-11-19,0,96
2016-11-20,1,90
2016-11-21,1,87
2016-11-22,0,99
2016-11-23,0,99
2016-11-24,0,92
2016-11-25,0,95
2016-11-26,0,93
2016-11-27,0,89
2016-11-28,1,93
2016-11-29,0,95
2016-11-30,2,100
2016-12-01,0,101
2016-12-02,1,90
2016-12-03,0,93
2016-12-04,2,92
2016-12-05,0,90
2016-12-06,0,85
2016-12-07,0,89
2016-12-08,1,99
2016-12-09,1,84
2016-12-10,0,104
2016-12-11,0,81
2016-12-12,0,99
2016-12-13,1,90
2016-12-14,0,98
2016-12-15,0,90
2016-12-16,0,100
2016-12-17,0,78
2016-12-18,2,92
2016-12-19,2,96
2016-12-20,0,86
2016-12-21,0,94
2016-12-22,1,97
2016-12-23,1,89
2016-12-24,0,82
2016-12-25,0,96
2016-12-26,0,88
2016-12-27,0,88
2016-12-28,0,102
2016-12-29,1,89
2016-12-30,1,93
2016-12-31,1,92
2017-01-01,0,89
2017-01-02,0,96
2017-01-03,1,92
2017-01-04,0,94
2017-01-05,0,86
2017-01-06,1,87
2017-01-07,0,94
2017-01-08,0,88
2017-01-09,0,95
2017-01-10,0,89
2017-01-11,0,98
2017-01-12,0,95
2017-01-13,0,88
2017-01-14,0,87
2017-01-15,0,89
2017-01-16,0,81
2017-01-17,0,88
2017-01-18,0,90
2017-01-19,0,90
2017-01-20,0,89
2017-01-21,0,84
2017-01-22,1,84
2017-01-23,0,80
2017-01-24,0,104
2017-01-25,3,81
2017-01-26,0,96
2017-01-27,0,77
2017-01-28,0,90
2017-01-29,0,87
2017-01-30,3,90
2017-01-31,1,85
2017-02-01,1,93
2017-02-02,0,86
2017-02-03,0,83
2017-02-04,1,92
2017-02-05,0,80
2017-02-06,0,91
2017-02-07,1,91
2017-02-08,3,84
2017-02-09,0,85
2017-02-10,0,86
2017-02-11,0,85
2017-02-12,0,84
2017-02-13,0,90
2017-02-14,0,90
2017-02-15,0,79
2017-02-16,0,94
2017-02-17,0,80
2017-02-18,1,89
2017-02-19,0,80
2017-02-20,1,105
2017-02-21,0,74
2017-02-22,1,92
2017-02-23,0,76
2017-02-24,0,91
2017-02-25,0,80
2017-02-26,0,78
2017-02-27,0,92
2017-02-28,0,86
2017-03-01,0,94
2017-03-02,0,84
2017-03-03,0,83
2017-03-04,2,82
2017-03-05,1,90
2017-03-06,2,87
2017-03-07,2,91
2017-03-08,0,86
2017-03-09,1,86
2017-03-10,0,83
2017-03-11,1,90
2017-03-12,0,73
2017-03-13,0,93
2017-03-14,0,75
2017-03-15,0,90
2017-03-16,0,84
2017-03-17,1,83
2017-03-18,2,93
2017-03-19,1,87
2017-03-20,0,92
2017-03-21,0,92
2017-03-22,1,87
2017-03-23,0,94
2017-03-24,0,88
2017-03-25,1,83
2017-03-26,0,82
2017-03-27,0,88
2017-03-28,0,89
2017-03-29,1,92
2017-03-30,0,85
2017-03-31,1,99
2017-04-01,0,91
2017-04-02,1,94
2017-04-03,0,81
2017-04-04,0,97
2017-04-05,0,81
2017-04-06,0,94
2017-04-07,1,87
2017-04-08,1,87
2017-04-09,0,88
2017-04-10,0,93
2017-04-11,2,88
2017-04-12,1,82
2017-04-13,0,81
2017-04-14,0,79
2017-04-15,0,74
2017-04-16,0,79
2017-04-17,0,85
2017-04-18,0,90
2017-04-19,0,86
2017-04-20,1,93
2017-04-21,1,71
2017-04-22,1,16
2017-04-23,1,117
2017-04-24,0,56
2017-04-25,0,115
2017-04-26,1,63
2017-04-27,0,102
2017-04-28,0,66
2017-04-29,0,98
2017-04-30,1,61
2017-05-01,0,101
2017-05-02,0,70
2017-05-03,0,100
2017-05-04,0,81
2017-05-05,0,93
2017-05-06,0,74
2017-05-07,0,93
2017-05-08,0,76
2017-05-09,0,80
2017-05-10,0,85
2017-05-11,0,79
2017-05-12,0,73
2017-05-13,0,87
2017-05-14,1,70
2017-05-15,1,88
2017-05-16,0,72
2017-05-17,0,92
2017-05-18,0,70
2017-05-19,0,99
2017-05-20,0,70
2017-05-21,0,86
2017-05-22,1,74
2017-05-23,0,86
2017-05-24,1,76
2017-05-25,0,84
2017-05-26,0,72
2017-05-27,0,82
2017-05-28,0,75
2017-05-29,0,86
2017-05-30,0,75
2017-05-31,1,83
2017-06-01,1,72
2017-06-02,0,91
2017-06-03,0,67
2017-06-04,1,85
2017-06-05,1,65
2017-06-06,0,84
2017-06-07,0,76
2017-06-08,0,80
2017-06-09,0,79
2017-06-10,0,85
2017-06-11,0,78
2017-06-12,0,82
2017-06-13,0,87
2017-06-14,0,81
2017-06-15,0,85
2017-06-16,0,93
2017-06-17,0,68
2017-06-18,2,97
2017-06-19,0,81
2017-06-20,0,89
2017-06-21,0,87
2017-06-22,0,82
2017-06-23,0,75
2017-06-24,0,84
2017-06-25,0,71
2017-06-26,1,86
2017-06-27,0,72
2017-06-28,1,95
2017-06-29,0,67
2017-06-30,1,90
2017-07-01,0,69
2017-07-02,0,78
2017-07-03,0,70
2017-07-04,0,91
2017-07-05,0,67
2017-07-06,0,88
2017-07-07,0,59
2017-07-08,0,91
2017-07-09,0,55
2017-07-10,0,91
2017-07-11,1,57
2017-07-12,0,83
2017-07-13,0,63
2017-07-14,1,81
2017-07-15,0,59
2017-07-16,0,77
2017-07-17,1,60
2017-07-18,1,80
2017-07-19,1,70
2017-07-20,0,80
2017-07-21,0,79
2017-07-22,0,35
2017-07-23,0,61
2017-07-24,0,57
2017-07-25,0,61
2017-07-26,1,42
2017-07-27,0,62
2017-07-28,1,54
2017-07-29,0,55
2017-07-30,0,55
2017-07-31,1,57
2017-08-01,0,55
2017-08-02,0,49
2017-08-03,0,52
2017-08-04,0,58
2017-08-05,1,42
2017-08-06,0,55
2017-08-07,0,59
2017-08-08,0,55
2017-08-09,1,45
2017-08-10,1,52
2017-08-11,0,48
2017-08-12,1,51
2017-08-13,0,49
2017-08-14,0,52
2017-08-15,0,54
2017-08-16,1,47
2017-08-17,0,56
2017-08-18,0,49
2017-08-19,0,49
2017-08-20,0,52
2017-08-21,0,47
2017-08-22,0,48
2017-08-23,0,49
2017-08-24,1,50
2017-08-25,0,45
2017-08-26,0,53
2017-08-27,0,44
2017-08-28,0,56
2017-08-29,1,43
2017-08-30,1,51
2017-08-31,0,49
2017-09-01,0,50
2017-09-02,1,39
2017-09-03,1,45
2017-09-04,1,60
2017-09-05,0,44
2017-09-06,1,44
2017-09-07,0,46
2017-09-08,0,47
2017-09-09,0,46
2017-09-10,0,51
2017-09-11,0,49
2017-09-12,0,43
2017-09-13,1,42
2017-09-14,0,42
2017-09-15,1,37
2017-09-16,0,40
2017-09-17,0,39
2017-09-18,1,47
2017-09-19,0,46
2017-09-20,1,38
2017-09-21,0,39
2017-09-22,0,45
2017-09-23,1,46
2017-09-24,2,42
2017-09-25,3,43
2017-09-26,0,38
2017-09-27,0,45
2017-09-28,1,44
2017-09-29,0,48
2017-09-30,1,36
2017-10-01,0,39
2017-10-02,2,51
2017-10-03,1,40
2017-10-04,1,51
2017-10-05,1,37
2017-10-06,0,46
2017-10-07,0,35
2017-10-08,0,45
2017-10-09,0,46
2017-10-10,1,46
2017-10-11,0,44
2017-10-12,0,38
2017-10-13,0,45
2017-10-14,0,37
2017-10-15,0,34
2017-10-16,0,45
2017-10-17,1,39
2017-10-18,1,49
2017-10-19,0,28
2017-10-20,0,44
2017-10-21,3,32
2017-10-22,1,40
2017-10-23,1,40
2017-10-24,0,40
2017-10-25,0,37
2017-10-26,0,44
2017-10-27,2,27
2017-10-28,1,44
2017-10-29,0,37
2017-10-30,1,43
2017-10-31,0,35
2017-11-01,0,44
2017-11-02,0,38
2017-11-03,0,44
2017-11-04,0,33
2017-11-05,1,42
2017-11-06,0,30
2017-11-07,0,45
2017-11-08,0,39
2017-11-09,0,40
2017-11-10,0,29
2017-11-11,0,36
2017-11-12,0,35
2017-11-13,0,35
2017-11-14,0,40
2017-11-15,1,32
2017-11-16,0,33
2017-11-17,1,25
2017-11-18,1,25
2017-11-19,0,20
2017-11-20,0,26
2017-11-21,0,20
2017-11-22,0,19
2017-11-23,0,19
2017-11-24,0,26
2017-11-25,0,19
2017-11-26,1,23
2017-11-27,0,33
2017-11-28,2,27
2017-11-29,0,30
2017-11-30,0,29
2017-12-01,0,32
2017-12-02,1,27
2017-12-03,2,25
2017-12-04,0,27
2017-12-05,0,33
2017-12-06,0,28
2017-12-07,0,38
2017-12-08,0,32
2017-12-09,0,19
2017-12-10,0,32
2017-12-11,0,24
2017-12-12,0,25
2017-12-13,0,23
2017-12-14,0,22
2017-12-15,0,24
2017-12-16,0,20
2017-12-17,0,23
2017-12-18,0,25
2017-12-19,1,20
2017-12-20,0,19
2017-12-21,0,23
2017-12-22,0,21
2017-12-23,0,20
2017-12-24,0,22
2017-12-25,0,14
2017-12-26,0,24
2017-12-27,0,22
2017-12-28,1,21
2017-12-29,0,18
2017-12-30,0,14
2017-12-31,0,16
2018-01-01,0,16
2018-01-02,0,21
2018-01-03,0,22
2018-01-04,0,15
2018-01-05,0,20
2018-01-06,1,21
2018-01-07,0,20
2018-01-08,0,21
2018-01-09,0,17
2018-01-10,0,21
2018-01-11,0,16
2018-01-12,0,15
2018-01-13,0,17
2018-01-14,0,19
2018-01-15,1,19
2018-01-16,1,20
2018-01-17,0,19
2018-01-18,0,18
2018-01-19,0,17
2018-01-20,0,21
2018-01-21,0,18
2018-01-22,0,22
2018-01-23,0,21
2018-01-24,0,18
2018-01-25,0,21
2018-01-26,0,18
2018-01-27,0,15
2018-01-28,0,18
2018-01-29,1,19
2018-01-30,0,19
2018-01-31,0,21
2018-02-01,0,16
2018-02-02,0,25
2018-02-03,0,15
2018-02-04,0,22
2018-02-05,0,15
2018-02-06,3,17
2018-02-07,0,18
2018-02-08,0,22
2018-02-09,0,13
2018-02-10,0,19
2018-02-11,0,19
2018-02-12,1,18
2018-02-13,0,22
2018-02-14,1,16
2018-02-15,2,19
2018-02-16,0,17
2018-02-17,1,15
2018-02-18,1,10
2018-02-19,1,23
2018-02-20,2,15
2018-02-21,2,23
2018-02-22,2,24
2018-02-23,2,22
2018-02-24,1,18
2018-02-25,2,10
2018-02-26,0,14
2018-02-27,1,12
2018-02-28,1,13
2018-03-01,1,11
2018-03-02,1,7
2018-03-03,1,9
2018-03-04,0,13
2018-03-05,1,11
2018-03-06,1,10
2018-03-07,1,10
2018-03-08,2,11
2018-03-09,1,4
2018-03-10,0,7
2018-03-11,2,9
2018-03-12,0,9
2018-03-13,1,14
2018-03-14,2,6
2018-03-15,1,11
2018-03-16,0,13
2018-03-17,2,10
2018-03-18,1,10
2018-03-19,3,13
2018-03-20,0,11
2018-03-21,1,14
2018-03-22,0,13
2018-03-23,1,11
2018-03-24,1,12
2018-03-25,1,12
2018-03-26,1,13
2018-03-27,0,10
2018-03-28,1,11
2018-03-29,2,13
2018-03-30,0,9
2018-03-31,1,14
2018-04-01,0,10
2018-04-02,0,14
2018-04-03,1,15
2018-04-04,0,11
2018-04-05,0,9
2018-04-06,2,14
2018-04-07,0,13
2018-04-08,1,10
2018-04-09,0,12
2018-04-10,1,15
2018-04-11,0,12
2018-04-12,2,11
2018-04-13,1,14
2018-04-14,1,9
2018-04-15,0,12
2018-04-16,1,10
2018-04-17,2,12
2018-04-18,1,11
2018-04-19,1,9
2018-04-20,0,9
2018-04-21,0,13
2018-04-22,0,14
2018-04-23,0,18
2018-04-24,1,12
2018-04-25,0,16
2018-04-26,0,14
2018-04-27,0,9
2018-04-28,0,14
2018-04-29,1,15
2018-04-30,0,13
2018-05-01,1,11
2018-05-02,1,11
2018-05-03,1,19
2018-05-04,0,16
2018-05-05,0,10
2018-05-06,0,15
2018-05-07,0,10
2018-05-08,0,11
2018-05-09,0,13
2018-05-10,1,13
2018-05-11,0,11
2018-05-12,0,12
2018-05-13,0,11
2018-05-14,0,16
2018-05-15,0,13
2018-05-16,0,9
2018-05-17,1,14
2018-05-18,1,10
2018-05-19,0,7
2018-05-20,0,11
2018-05-21,0,15
2018-05-22,0,10
2018-05-23,0,13
2018-05-24,0,8
2018-05-25,0,9
2018-05-26,2,13
2018-05-27,0,9
2018-05-28,1,13
2018-05-29,0,19
2018-05-30,0,15
2018-05-31,0,12
2018-06-01,0,10
2018-06-02,0,7
2018-06-03,1,8
2018-06-04,0,8
2018-06-05,0,10
2018-06-06,0,8
2018-06-07,1,7
2018-06-08,1,10
2018-06-09,0,8
2018-06-10,1,14
2018-06-11,0,7
2018-06-12,0,10
2018-06-13,0,7
2018-06-14,0,11
2018-06-15,0,6
2018-06-16,0,15
2018-06-17,0,11
2018-06-18,0,7
2018-06-19,0,13
2018-06-20,1,7
2018-06-21,0,10
2018-06-22,0,10
2018-06-23,2,11
2018-06-24,0,10
2018-06-25,0,4
2018-06-26,0,10
2018-06-27,0,10
2018-06-28,2,9
2018-06-29,0,9
2018-06-30,0,10
2018-07-01,0,8
2018-07-02,1,13
2018-07-03,0,12
2018-07-04,0,8
2018-07-05,0,7
2018-07-06,1,11
2018-07-07,1,8
2018-07-08,0,6
2018-07-09,0,9
2018-07-10,0,17
2018-07-11,0,12
2018-07-12,0,9
2018-07-13,1,14
2018-07-14,0,8
2018-07-15,1,11
2018-07-16,0,18
2018-07-17,1,8
2018-07-18,1,15
2018-07-19,0,12
2018-07-20,0,13
2018-07-21,0,13
2018-07-22,0,13
2018-07-23,0,15
2018-07-24,0,9
2018-07-25,0,15
2018-07-26,0,14
2018-07-27,0,15
2018-07-28,1,10
2018-07-29,0,16
2018-07-30,0,12
2018-07-31,0,14
2018-08-01,1,14
2018-08-02,1,15
2018-08-03,0,13
2018-08-04,1,13
2018-08-05,0,12
2018-08-06,0,12
2018-08-07,0,11
2018-08-08,1,13
2018-08-09,0,10
2018-08-10,1,10
2018-08-11,0,14
2018-08-12,0,10
2018-08-13,0,14
2018-08-14,0,12
2018-08-15,0,15
2018-08-16,1,12
2018-08-17,2,17
2018-08-18,1,13
2018-08-19,0,12
2018-08-20,0,22
2018-08-21,1,12
2018-08-22,0,11
2018-08-23,0,11
2018-08-24,0,12
2018-08-25,0,18
2018-08-26,1,17
2018-08-27,0,10
2018-08-28,1,9
2018-08-29,0,16
2018-08-30,1,17
2018-08-31,0,16
2018-09-01,0,13
2018-09-02,0,12
2018-09-03,1,15
2018-09-04,0,15
2018-09-05,1,10
2018-09-06,0,19
2018-09-07,0,9
2018-09-08,0,16
2018-09-09,0,10
2018-09-10,1,14
2018-09-11,0,14
2018-09-12,0,14
2018-09-13,1,9
2018-09-14,0,16
2018-09-15,1,12
2018-09-16,0,9
2018-09-17,0,18
2018-09-18,0,16
2018-09-19,0,15
2018-09-20,1,12
2018-09-21,0,9
2018-09-22,0,15
2018-09-23,0,15
2018-09-24,0,16
2018-09-25,0,8
2018-09-26,0,19
2018-09-27,0,16
2018-09-28,0,14
2018-09-29,0,14
2018-09-30,0,21
2018-10-01,0,10
2018-10-02,1,13
2018-10-03,1,14
2018-10-04,1,13